Flag for Norway Weather past 2 weeks in Eidsvoll, Norway

Now
36 °F

Clear.


Feels Like: 33 °F
Forecast: 41 / 56 °F
Wind: 3 mph from North

Location: Oslo Gardermoen Airport

Current Time: Apr 19, 2015 at 3:33:08 AM

Latest Report: Apr 19, 2015 at 2:20 AM


Visibility: 10 mi

Pressure: 30.27 "Hg

Humidity: 87%

Dew point: 32 °F

Location of EidsvollLocation

Historic Weather in Eidsvoll — Graph

°F

Eidsvoll temperature yesterday

Maximum temperature yesterday: 52 °F (at 1:50 PM)
Minimum temperature yesterday: 30 °F (at 5:20 AM)
Average temperature yesterday: 41 °F

Past Weeks' High & Low Weather Summary

 TemperatureHumidityPressure
High61 °F (Apr 10, 4:20 PM)100% (Apr 11, 4:50 AM)30.42 "Hg (Apr 11, 4:50 AM)
Low23 °F (Apr 5, 5:20 AM)21% (Apr 13, 3:20 PM)29.42 "Hg (Apr 15, 4:20 PM)
Average41 °F56%29.97 "Hg
* Reported Apr 4 2:20 AM — Apr 19 2:20 AM, Eidsvoll, Weather by CustomWeather, © 2015

Note: Actual official high and low records may vary slightly from our data, if they occured in-between our weather recording intervals... More about our weather records

Advertising

Eidsvoll weather history for previous 24 hours

 ConditionsComfort  
Time TempWeatherWind HumidityBarometerVisibility
2:20 AM
Sun, Apr 19
36 °FClear.3 mph87%30.27 "Hg10 mi
1:50 AM37 °FClear.5 mph81%30.30 "Hg10 mi
1:20 AM37 °FClear.9 mph87%30.30 "Hg10 mi
12:50 AM37 °FClear.9 mph87%30.30 "Hg10 mi
12:20 AM37 °FClear.10 mph87%30.27 "Hg10 mi
11:50 PM
Sat, Apr 18
36 °FClear.7 mph87%30.27 "Hg10 mi
11:20 PM36 °FClear.5 mph93%30.24 "Hg10 mi
10:50 PM37 °FClear.2 mph93%30.24 "Hg10 mi
10:20 PM39 °FScattered showers. Clear.2 mph87%30.24 "HgN/A
9:50 PM39 °FSprinkles. Clear.3 mph87%30.24 "HgN/A
9:20 PM41 °FLight rain. Clear.7 mph81%30.24 "HgN/A
8:50 PM41 °FLight rain. Overcast.12 mph76%30.24 "HgN/A
8:20 PM45 °FLight rain. Broken clouds.21 mph61%30.21 "HgN/A
7:50 PM46 °FLight rain. Partly sunny.18 mph50%30.21 "HgN/A
7:20 PM48 °FScattered showers. Clear.14 mph43%30.18 "HgN/A
6:50 PM48 °FPassing clouds.13 mph40%30.18 "HgN/A
6:20 PM48 °FSunny.13 mph40%30.18 "Hg10 mi
5:50 PM50 °FSunny.16 mph37%30.18 "Hg10 mi
5:20 PM50 °FSunny.15 mph37%30.18 "Hg10 mi
4:50 PM52 °FPassing clouds.15 mph35%30.18 "HgN/A
4:20 PM52 °FPassing clouds.17 mph32%30.18 "HgN/A
3:50 PM52 °FPassing clouds.14 mph32%30.18 "HgN/A
3:20 PM52 °FPassing clouds.16 mph35%30.18 "HgN/A
2:50 PM52 °FPassing clouds.13 mph35%30.18 "HgN/A
2:20 PM52 °FPassing clouds.8 mph35%30.18 "HgN/A
1:50 PM52 °FPassing clouds.10 mph32%30.21 "HgN/A
1:20 PM50 °FPassing clouds.10 mph37%30.21 "HgN/A
12:50 PM50 °FPassing clouds.9 mph40%30.21 "HgN/A
12:20 PM48 °FPassing clouds.10 mph40%30.21 "HgN/A
11:50 AM46 °FPassing clouds.7 mph46%30.21 "HgN/A
11:20 AM46 °FPassing clouds.5 mph46%30.24 "HgN/A
10:50 AM45 °FPassing clouds.5 mph49%30.24 "HgN/A
10:20 AM43 °FPassing clouds.5 mph57%30.24 "HgN/A
9:50 AM43 °FSunny.3 mph61%30.24 "Hg10 mi
9:20 AM39 °FSunny.No wind65%30.24 "Hg10 mi
8:50 AM39 °FSunny.2 mph65%30.24 "Hg10 mi
8:20 AM37 °FSunny.2 mph70%30.27 "Hg10 mi
7:50 AM36 °FSunny.5 mph75%30.27 "Hg10 mi
7:20 AM34 °FSunny.6 mph81%30.27 "Hg10 mi
6:50 AM30 °FSunny.6 mph86%30.27 "Hg10 mi
6:20 AM30 °FPassing clouds.5 mph80%30.27 "HgN/A
5:50 AM30 °FClear.5 mph80%30.27 "Hg10 mi
5:20 AM30 °FClear.3 mph80%30.27 "Hg10 mi
4:50 AM32 °FClear.6 mph80%30.27 "Hg10 mi
4:20 AM32 °FClear.5 mph80%30.27 "Hg10 mi
3:50 AM34 °FPassing clouds.5 mph75%30.27 "HgN/A
3:20 AM34 °FClear.2 mph75%30.27 "Hg10 mi
Weather by CustomWeather, © 2015

See weather overviewHow to use our weather pages